• In Hungary
  • List of Countries
  • For 7 days
  • Water Temperature
  • Satellite Maps
  • Weather Map
  • News
  • Weather Widgets
  • user-avatar
    Login

    Hourly Weather Ocotal

    Today, 23 January, Tuesday

    Time Temperature Precipitation Wind Pressure Humidity
    00:00 +21°C° 0 mm 1 mps 707 mmHg 94%
    01:00 +21°C° 0 mm 1 mps 707 mmHg 94%
    02:00 +21°C° 0 mm 1 mps 707 mmHg 94%
    03:00 +20°C° 0 mm 2 mps 706 mmHg 94%
    04:00 +20°C° 0 mm 2 mps 707 mmHg 93%
    05:00 +20°C° 0 mm 2 mps 707 mmHg 93%
    06:00 +19°C° 0 mm 2 mps 707 mmHg 93%
    07:00 +21°C° 0 mm 2 mps 707 mmHg 85%
    08:00 +24°C° 0 mm 3 mps 708 mmHg 76%
    09:00 +26°C° 0 mm 3 mps 708 mmHg 67%
    10:00 +27°C° 0 mm 4 mps 708 mmHg 62%
    11:00 +28°C° 0 mm 4 mps 708 mmHg 56%
    12:00 +30°C° 0 mm 4 mps 708 mmHg 50%
    13:00 +30°C° 0 mm 5 mps 707 mmHg 49%
    14:00 +30°C° 0 mm 5 mps 707 mmHg 49%
    15:00 +30°C° 0 mm 5 mps 706 mmHg 48%
    16:00 +28°C° 0 mm 4 mps 706 mmHg 57%
    17:00 +26°C° 0 mm 3 mps 706 mmHg 67%
    18:00 +24°C° 0 mm 2 mps 706 mmHg 76%
    19:00 +23°C° 0 mm 2 mps 707 mmHg 81%
    20:00 +21°C° 0 mm 2 mps 707 mmHg 86%
    21:00 +20°C° 0 mm 2 mps 708 mmHg 92%
    22:00 +20°C° 0 mm 2 mps 708 mmHg 92%
    23:00 +20°C° 0 mm 2 mps 708 mmHg 93%

    Tomorrow, 24 January, Wednesday

    Time Temperature Precipitation Wind Pressure Humidity
    00:00 +20°C° 0 mm 2 mps 708 mmHg 94%
    01:00 +20°C° 0 mm 2 mps 707 mmHg 93%
    02:00 +20°C° 0 mm 2 mps 707 mmHg 92%
    03:00 +20°C° 0 mm 2 mps 707 mmHg 91%
    04:00 +20°C° 0 mm 2 mps 707 mmHg 91%
    05:00 +20°C° 0 mm 2 mps 707 mmHg 91%
    06:00 +20°C° 0 mm 2 mps 708 mmHg 91%
    07:00 +21°C° 0 mm 3 mps 708 mmHg 84%
    08:00 +24°C° 0 mm 3 mps 709 mmHg 77%
    09:00 +25°C° 0 mm 4 mps 710 mmHg 69%
    10:00 +26°C° 0 mm 4 mps 709 mmHg 64%
    11:00 +27°C° 0 mm 4 mps 709 mmHg 60%
    12:00 +28°C° 0 mm 5 mps 709 mmHg 55%
    13:00 +28°C° 0.2 mm 5 mps 708 mmHg 55%
    14:00 +28°C° 0.2 mm 4 mps 707 mmHg 56%
    15:00 +29°C° 0.2 mm 4 mps 707 mmHg 56%
    16:00 +27°C° 0.4 mm 4 mps 707 mmHg 64%
    17:00 +25°C° 0.4 mm 3 mps 707 mmHg 72%
    18:00 +23°C° 0.4 mm 2 mps 707 mmHg 80%
    19:00 +21°C° 0.1 mm 2 mps 708 mmHg 83%
    20:00 +21°C° 0.1 mm 2 mps 708 mmHg 86%
    21:00 +20°C° 0.1 mm 2 mps 709 mmHg 89%
    22:00 +20°C° 0 mm 2 mps 709 mmHg 90%
    23:00 +20°C° 0 mm 2 mps 709 mmHg 90%

    Day after tomorrow, 25 January, Thursday

    Time Temperature Precipitation Wind Pressure Humidity
    00:00 +20°C° 0 mm 2 mps 709 mmHg 90%
    01:00 +20°C° 0 mm 2 mps 708 mmHg 91%
    02:00 +19°C° 0 mm 2 mps 708 mmHg 91%
    03:00 +19°C° 0 mm 2 mps 707 mmHg 92%
    04:00 +19°C° 0 mm 2 mps 708 mmHg 91%
    05:00 +19°C° 0 mm 2 mps 708 mmHg 91%
    06:00 +19°C° 0 mm 2 mps 708 mmHg 91%
    07:00 +21°C° 0 mm 3 mps 708 mmHg 84%
    08:00 +22°C° 0 mm 4 mps 709 mmHg 77%
    09:00 +23°C° 0 mm 4 mps 710 mmHg 70%
    10:00 +26°C° 0 mm 5 mps 710 mmHg 64%
    11:00 +27°C° 0 mm 5 mps 709 mmHg 58%
    12:00 +29°C° 0 mm 6 mps 709 mmHg 52%
    13:00 +29°C° 0 mm 5 mps 708 mmHg 52%
    14:00 +29°C° 0 mm 5 mps 707 mmHg 52%
    15:00 +29°C° 0 mm 5 mps 707 mmHg 52%
    16:00 +27°C° 0 mm 4 mps 707 mmHg 59%
    17:00 +25°C° 0 mm 4 mps 707 mmHg 67%
    18:00 +22°C° 0 mm 3 mps 707 mmHg 74%
    19:00 +22°C° 0 mm 3 mps 708 mmHg 79%
    20:00 +21°C° 0 mm 2 mps 708 mmHg 84%
    21:00 +20°C° 0 mm 2 mps 709 mmHg 89%
    22:00 +20°C° 0 mm 2 mps 709 mmHg 90%
    23:00 +20°C° 0 mm 2 mps 708 mmHg 90%

    26 January, Friday

    Time Temperature Precipitation Wind Pressure Humidity
    00:00 +19°C° 0 mm 2 mps 708 mmHg 91%
    01:00 +20°C° 0 mm 2 mps 708 mmHg 90%
    02:00 +20°C° 0 mm 2 mps 708 mmHg 89%
    03:00 +20°C° 0 mm 2 mps 707 mmHg 87%
    04:00 +20°C° 0 mm 2 mps 708 mmHg 87%
    05:00 +20°C° 0 mm 2 mps 708 mmHg 87%
    06:00 +20°C° 0 mm 2 mps 708 mmHg 87%
    07:00 +21°C° 0 mm 3 mps 709 mmHg 80%
    08:00 +23°C° 0 mm 4 mps 709 mmHg 73%
    09:00 +25°C° 0 mm 4 mps 710 mmHg 66%
    10:00 +26°C° 0 mm 4 mps 709 mmHg 62%
    11:00 +27°C° 0 mm 5 mps 709 mmHg 59%
    12:00 +28°C° 0 mm 5 mps 709 mmHg 55%
    13:00 +29°C° 0 mm 5 mps 708 mmHg 54%
    14:00 +29°C° 0 mm 5 mps 707 mmHg 52%
    15:00 +29°C° 0 mm 5 mps 706 mmHg 51%
    16:00 +27°C° 0 mm 4 mps 706 mmHg 59%
    17:00 +25°C° 0 mm 3 mps 707 mmHg 68%
    18:00 +23°C° 0 mm 2 mps 707 mmHg 77%
    19:00 +23°C° 0 mm 2 mps 707 mmHg 81%
    20:00 +21°C° 0 mm 2 mps 708 mmHg 86%
    21:00 +20°C° 0 mm 2 mps 708 mmHg 90%
    22:00 +20°C° 0 mm 2 mps 708 mmHg 90%
    23:00 +20°C° 0 mm 2 mps 708 mmHg 90%

    27 January, Saturday

    Time Temperature Precipitation Wind Pressure Humidity
    00:00 +21°C° 0 mm 2 mps 708 mmHg 89%
    01:00 +20°C° 0.1 mm 2 mps 707 mmHg 90%
    02:00 +20°C° 0.1 mm 2 mps 707 mmHg 90%
    03:00 +20°C° 0.1 mm 2 mps 707 mmHg 90%
    04:00 +20°C° 0.1 mm 2 mps 707 mmHg 90%
    05:00 +20°C° 0.1 mm 2 mps 707 mmHg 91%
    06:00 +20°C° 0.1 mm 2 mps 707 mmHg 91%
    07:00 +21°C° 0.1 mm 2 mps 708 mmHg 85%
    08:00 +22°C° 0.1 mm 3 mps 709 mmHg 79%
    09:00 +25°C° 0.1 mm 4 mps 709 mmHg 74%
    10:00 +26°C° 0.1 mm 4 mps 709 mmHg 69%
    11:00 +27°C° 0.1 mm 4 mps 708 mmHg 64%
    12:00 +28°C° 0.1 mm 4 mps 708 mmHg 59%
    13:00 +28°C° 0 mm 4 mps 707 mmHg 57%
    14:00 +29°C° 0 mm 4 mps 707 mmHg 55%
    15:00 +29°C° 0 mm 4 mps 706 mmHg 52%
    16:00 +27°C° 0.1 mm 3 mps 706 mmHg 61%
    17:00 +25°C° 0.1 mm 3 mps 706 mmHg 69%
    18:00 +23°C° 0.1 mm 2 mps 706 mmHg 78%
    19:00 +23°C° 0 mm 2 mps 707 mmHg 82%
    20:00 +21°C° 0 mm 2 mps 707 mmHg 87%
    21:00 +20°C° 0 mm 2 mps 708 mmHg 92%
    22:00 +20°C° 0 mm 2 mps 707 mmHg 92%
    23:00 +20°C° 0 mm 2 mps 707 mmHg 92%

    28 January, Sunday

    Time Temperature Precipitation Wind Pressure Humidity
    00:00 +20°C° 0 mm 2 mps 707 mmHg 92%
    01:00 +20°C° 0 mm 2 mps 707 mmHg 92%
    02:00 +20°C° 0 mm 2 mps 707 mmHg 93%
    03:00 +19°C° 0 mm 2 mps 706 mmHg 93%
    04:00 +19°C° 0 mm 2 mps 707 mmHg 93%
    05:00 +19°C° 0 mm 2 mps 707 mmHg 94%
    06:00 +19°C° 0 mm 2 mps 707 mmHg 94%
    07:00 +21°C° 0 mm 2 mps 708 mmHg 86%
    08:00 +22°C° 0 mm 3 mps 708 mmHg 77%
    09:00 +25°C° 0 mm 3 mps 709 mmHg 68%
    10:00 +26°C° 0 mm 3 mps 709 mmHg 63%
    11:00 +28°C° 0 mm 3 mps 708 mmHg 58%
    12:00 +29°C° 0 mm 3 mps 708 mmHg 53%
    13:00 +29°C° 0 mm 3 mps 707 mmHg 51%
    14:00 +30°C° 0 mm 3 mps 706 mmHg 49%
    15:00 +30°C° 0 mm 3 mps 706 mmHg 47%
    16:00 +28°C° 0 mm 3 mps 706 mmHg 56%
    17:00 +26°C° 0 mm 3 mps 706 mmHg 65%
    18:00 +24°C° 0 mm 2 mps 706 mmHg 73%
    19:00 +23°C° 0 mm 2 mps 707 mmHg 79%
    20:00 +21°C° 0 mm 2 mps 707 mmHg 85%
    21:00 +20°C° 0 mm 2 mps 708 mmHg 91%
    22:00 +20°C° 0 mm 2 mps 708 mmHg 91%
    23:00 +20°C° 0 mm 2 mps 708 mmHg 92%
    Show more